This is the latest recevied weather packets stored in our database for station/object K7FRY. If no packets are shown the sender has not sent any weather packets the latest 10 day(s).
| Time | Temp. | Humidity | Pressure | Rain* | Wind** | Luminosity | Snow |
|---|---|---|---|---|---|---|---|
| 1777564216 | 22.22° C | 23% | 1013.6 hPa | 0 mm | - | 225 W/m² | - |
| 1777563913 | 22.78° C | 22% | 1013.6 hPa | 0 mm | - | 474 W/m² | - |
| 1777563609 | 21.67° C | 23% | 1013.4 hPa | 0 mm | - | 482 W/m² | - |
| 1777563309 | 21.67° C | 23% | 1013.6 hPa | 0 mm | - | 488 W/m² | - |
| 1777563005 | 21.67° C | 23% | 1013.7 hPa | 0 mm | - | 383 W/m² | - |
| 1777562700 | 21.11° C | 23% | 1013.9 hPa | 0 mm | - | 382 W/m² | - |
| 1777562395 | 20.56° C | 23% | 1013.8 hPa | 0 mm | - | 388 W/m² | - |
| 1777562091 | 20° C | 24% | 1014 hPa | 0 mm | - | 189 W/m² | - |
| 1777561788 | 20° C | 24% | 1013.9 hPa | 0 mm | - | 212 W/m² | - |
| 1777561484 | 20° C | 24% | 1013.8 hPa | 0 mm | - | 246 W/m² | - |
| 1777561179 | 19.44° C | 25% | 1013.7 hPa | 0 mm | - | 198 W/m² | - |
| 1777560874 | 18.89° C | 25% | 1014 hPa | 0 mm | - | 170 W/m² | - |
| 1777560572 | 18.89° C | 25% | 1013.9 hPa | 0 mm | - | 153 W/m² | - |
| 1777560270 | 18.33° C | 26% | 1014 hPa | 0 mm | - | 149 W/m² | - |
| 1777559966 | 17.78° C | 27% | 1013.9 hPa | 0 mm | - | 183 W/m² | - |
| 1777559662 | 17.78° C | 28% | 1013.6 hPa | 0 mm | - | 163 W/m² | - |
| 1777559360 | 17.78° C | 29% | 1013.6 hPa | 0 mm | - | 129 W/m² | - |
| 1777559056 | 17.22° C | 30% | 1014 hPa | 0 mm | - | 113 W/m² | - |
| 1777558751 | 17.22° C | 31% | 1013.7 hPa | 0 mm | - | 107 W/m² | - |
| 1777558447 | 16.67° C | 29% | 1014 hPa | 0 mm | - | 91 W/m² | - |
| 1777558143 | 16.67° C | 29% | 1013.6 hPa | 0 mm | - | 76 W/m² | - |
| 1777557839 | 16.67° C | 30% | 1013.5 hPa | 0 mm | - | 77 W/m² | - |
| 1777557537 | 17.22° C | 30% | 1013.7 hPa | 0 mm | - | 75 W/m² | - |
| 1777557232 | 17.78° C | 29% | 1013.7 hPa | 0 mm | - | 71 W/m² | - |
| 1777556928 | 17.78° C | 26% | 1013.5 hPa | 0 mm | - | 69 W/m² | - |
* Rain latest hour (hover to see other rain measurements)
** Current wind speed in m/s (hover to see current wind gust speed)